Location: Cuiry
(49.3858°N, 3.7708°E)
Time: 22:41:55
(UTC+00:00)

USA 267 - Pass Details

Date: 12 January 2026
Orbit: 1101 x 1107 km, 123.0° (Epoch: 10 January)

Event Time Altitude Azimuth Distance (km) Brightness Sun altitude
Exits shadow 18:46:12 37° 131° (SE) 1,643 3.8 -24.7°
Maximum altitude 18:49:04 82° 214° (SW) 1,118 3.2 -25.1°
Drops below altitude 10° 18:55:39 10° 303° (WNW) 2,965 6.2 -26.2°
Sets 18:58:08 0° 304° (NW) 3,925 6.9 -26.6°
